Location: Newark
(45.5000°N, 11.4167°E)
Time: 18:41:47
(UTC+00:00)

Altair - Pass Details

Date: 03 September 2019
Orbit: 1501 x 1683 km, 47.2° (Epoch: 14 September)

Event Time Altitude Azimuth Distance (km) Brightness Sun altitude
Exits shadow 22:06:31 20° 83° (E) 3,160 9.0 -35.0°
Drops below altitude 10° 22:09:10 10° 74° (ENE) 3,853 9.5 -35.2°
Sets 22:12:29 0° 67° (ENE) 4,816 10.2 -35.4°
